Вернуться в каталог

NOAA 16 DEB

АктивенSSO
NORAD 41513·DEBRIS·🇺🇸 United States

Запущен Sep 21, 2000 с Vandenberg Space Force Base

Loading…

Ближайшие Пролёты (ближайшие 24 часа)

TLE

СвежийSource: Space-Track

Эпоха: Sep 14, 2026, 10:55 UTC

1 41513U 00055MM  26257.45508689  .00002581  00000-0  12408-2 0  9994
2 41513  98.7423 257.1512 0053484  30.1040 330.3192 14.18945144537539

Отслеживайте NOAA 16 DEB в реальном времени с AllMySat

Download on the App Store